COSMOS 1275 DEB, 42143

Orbit data source: Space-Track

COSMOS 1275 DEB, 42143 is space debris in LEO originally from a launch on Thu, 04 Jun 1981 UTC launched from the Plesetsk Missile And Space Complex (PKMTR). Debris objects in space refer to the collection of defunct objects orbiting the Earth. Examples of debris include non-operational satellites, rocket bodies, and fragments generated from explosions, collisions, or faulty payload assembly.

Loading next visibility...
Identifier
42143, 1981-053RF
Orbit
LEO
Country
Flag of CISCIS
Related business
Manufacturer
Unknown
Mission
Spacecraft
Bus & Motor
Unknown
Mass
Unknown
Launch date (UTC)
1981-06-04 (45 years ago)
Launch vehicle
Unknown
Launch site
Plesetsk Missile And Space Complex (PKMTR)
Object type
Payload
Rocket body
Debris
Shape & HBR
Unknown shape, 0.1 m
Radar Cross Section
Small (<0.1 m²)

Expand to show TLE details & history
Last TLE update: 3 days ago

TLE from 3 days ago
0 COSMOS 1275 DEB
1 42143U 81053RF  26252.37631221  .00000963  00000-0  86175-3 0  9991
2 42143  83.0149 126.6283 0093941 137.8069 223.0371 13.81359996642519
Epoch: 2026-09-09T09:01Z
TLE epoch observation values (Epoch: 2026-09-09T09:01:53.374Z)
Latitude
-0.00008°
Longitude
2.72664°
Altitude
1,012.666 km
Speed
7.32 km/s
True Right ascension
08h 26m 30s
True Declination
0° 00' 00"
Sunlit
Object was in daylight at epoch
Visualization orbit readout
Latitude
Unknown
Longitude
Unknown
Altitude
Unknown
Speed
Unknown
Apparent Right ascension
Unknown
Apparent Declination
Unknown
Sunlit
N/A
Visualization observer readout
Local Sidereal Time
03:50:02
Azimuth
Unknown
Elevation
Unknown
Doppler factor
Unknown
Orbital elements
Apogee altitude
1,025.103 km
Perigee altitude
887.304 km
Semi-major axis
7,334.341 km
Eccentricity
0.00939
Inclination
83.0149°
RAAN
126.6283°
Arg. of periapsis
137.8069°
True anomaly
222.3087°
Mean anomaly
223.0371°
Eccentric anomaly
222.67228°
Mean motion
3.45543 °/min
Orbital period
104.18 mins
BSTAR
0.00086175
Loading maneuver chart data...
Computing Atmospheric mass density...
Loading historical data...
Loading historical data...
Loading historical data...
Loading historical data...
Loading historical data...
Loading historical data...
Loading historical data...

Documentation

Showing up to 5 results
|